User: anonymous   Login
Location: Unspecified
(0.0000°N, 0.0000°E)
Time: 20:17:06
(UTC+00:00)
Language:

AO-Echo - Orbit

View from above orbital plane
View from above orbital plane
View from above satellite
View from above satellite

Ground track
Ground track

The orbit data is extracted from the following two-line orbital elements,

1 28375U 04025K   19340.75637223 +.00000020 +00000-0 +19171-4 0  9993
2 28375 098.4210 268.7916 0083668 083.9190 277.1526 14.41943751811820
Epoch (UTC): 06 December 2019 18:09:10
Eccentricity: 0.0083668
inclination: 98.4210°
perigee height: 692 km
apogee height: 812 km
right ascension of ascending node: 268.7916°
argument of perigee: 83.9190°
revolutions per day: 14.41943751
mean anomaly at epoch: 277.1526°
orbit number at epoch: 81182

The dashed part of the orbit path shows where the satellite is in the earth's shadow,  

DLR